Wind_Speed
9 10 9 7 5 4 3 4 4 3 3 3 5 5 6 5 5 6 7 8 7 4 4 2 2 7 5 1 2 3 3 2 1 2 2 3 3 3 3 4 5 4 5
7 8 11 9 7 6 6 6 6 5 4 4 4 5 5 5 5 5 6 7 7 5 4 2 4 7 7 4 0 1 1 0 1 2 2 2 2 3 4 3 3 4 5
10 9 10 10 11 10 9 8 8 7 7 6 5 5 5 5 5 5 5 6 6 4 4 6 5 10 9 6 5 1 1 1 2 3 4 0 2 2 4 4 3 3 5
9 11 10 14 13 12 12 11 9 9 9 9 8 6 6 6 6 5 5 5 4 4 4 7 9 11 11 8 6 5 3 3 3 3 4 3 1 3 4 5 4 3 4
5 6 11 13 14 13 13 13 12 12 11 11 11 9 8 7 7 7 6 6 5 4 4 8 11 10 10 10 7 5 4 3 4 3 4 4 3 1 3 4 4 4 3
17 16 8 10 14 16 15 14 14 14 13 12 12 11 9 10 8 8 7 7 6 6 6 8 9 10 10 9 9 7 3 1 2 3 5 4 2 2 3 3 3 3 3
15 14 15 13 16 16 16 15 17 16 16 15 14 13 11 11 11 11 9 9 7 7 7 9 9 10 10 10 9 9 7 2 1 2 3 4 3 3 3 3 3 2 1
17 14 13 15 16 18 18 17 17 18 19 18 17 15 14 14 14 13 13 12 11 9 8 9 9 9 8 8 7 8 8 5 3 3 3 3 3 3 2 3 3 3 2
15 15 15 17 18 19 18 20 19 20 19 20 19 18 17 16 16 15 15 15 14 13 12 10 10 9 9 9 7 5 5 6 4 5 4 4 4 5 5 5 5 4 3
16 16 16 17 18 20 22 25 24 21 21 23 22 22 21 20 18 18 16 17 17 16 14 14 13 11 11 10 9 8 6 4 5 5 5 5 6 6 6 7 7 6 6
16 17 18 18 18 20 22 23 23 27 26 26 26 27 25 24 22 21 19 19 19 18 17 17 16 15 13 12 11 10 7 6 4 4 5 5 6 7 7 7 7 7 7
20 20 20 21 22 22 23 23 28 28 28 29 30 30 29 27 26 25 23 22 22 21 21 20 19 18 16 15 15 13 10 7 6 6 5 5 7 7 7 8 8 8 8
23 23 24 24 25 26 27 27 28 29 31 32 32 31 31 31 30 29 27 25 25 25 24 23 21 20 19 19 18 16 13 10 8 7 7 6 6 8 9 9 9 10 9
27 26 27 28 28 29 30 31 32 32 34 34 36 38 37 32 30 32 31 30 29 27 27 26 25 23 23 22 22 20 17 13 11 9 9 8 8 9 10 11 12 12 11
29 30 30 32 31 32 33 34 35 36 37 38 38 38 38 40 37 34 33 33 33 33 32 31 31 28 27 26 25 23 22 18 14 13 12 11 10 10 12 12 12 13 13
30 30 31 32 34 35 36 37 38 40 41 42 42 41 41 41 40 43 40 37 36 35 36 35 34 33 31 30 29 28 25 24 20 17 15 15 14 13 12 13 13 13 14
32 32 33 34 35 36 37 38 39 41 43 44 45 46 47 46 45 44 43 43 43 41 37 38 37 36 36 35 34 31 30 28 26 22 20 18 18 17 14 15 14 14 15
35 35 36 38 38 40 41 42 42 43 44 45 45 47 50 51 51 51 50 47 44 45 41 36 42 39 40 39 37 34 32 32 30 28 25 23 21 21 19 18 16 15 16
37 37 38 40 41 42 43 44 44 44 45 46 47 48 49 52 54 56 56 54 51 49 48 45 37 38 46 42 40 38 37 36 35 35 30 28 26 24 23 21 20 18 17
36 38 39 40 41 43 45 46 46 46 45 46 47 48 49 52 54 57 59 60 58 56 55 55 52 48 41 40 53 45 44 42 40 40 37 34 32 29 27 26 24 21 19
36 38 39 40 40 43 44 45 46 47 47 47 48 49 51 52 53 56 60 61 62 63 62 60 60 58 55 56 49 37 57 46 45 42 40 41 36 34 31 29 27 24 22
32 32 32 34 36 38 42 44 45 46 46 47 48 48 50 53 55 56 58 60 62 64 65 66 65 64 63 59 58 55 53 39 47 47 44 43 42 39 36 33 30 28 26
25 25 25 27 28 30 33 36 38 42 44 45 46 46 47 49 52 56 60 61 62 62 64 67 68 69 68 65 62 60 60 56 50 34 50 43 42 39 40 38 33 31 28
20 20 22 24 25 26 29 33 35 36 38 40 43 46 48 50 50 52 54 57 60 63 66 65 66 69 70 71 68 66 63 61 59 59 56 48 45 39 39 35 36 31 29
20 22 23 23 24 25 26 29 29 31 34 38 41 43 43 43 44 49 50 52 55 57 60 64 66 66 69 70 71 70 68 65 61 62 59 54 50 47 40 34 35 39 32
17 21 23 24 26 27 29 30 32 35 36 35 35 38 42 41 38 37 39 42 44 47 51 57 62 65 65 66 67 64 64 70 68 66 64 61 57 49 47 45 47 37 38
Wind_Direction
209 205 204 202 199 207 264 260 264 282 312 330 338 341 343 347 353 357 0 9 14 40 67 56 28 8 20 55 127 145 146 135 40 358 7 95 102 109 112 125 116 99 74
213 215 219 216 228 227 243 243 252 263 277 297 317 329 328 329 338 345 352 1 7 14 21 346 315 345 357 356 54 140 134 62 317 334 349 82 96 127 131 139 127 97 74
234 240 229 220 233 241 235 239 246 255 262 272 285 300 314 316 322 331 338 347 2 357 346 331 312 329 342 349 336 313 243 272 319 332 323 250 128 146 145 144 133 102 79
235 240 234 223 230 236 240 246 253 258 264 265 267 276 291 306 310 311 315 325 340 338 319 318 299 322 333 340 345 322 293 279 289 301 326 313 268 172 167 157 155 124 99
279 258 239 234 235 241 245 249 254 265 268 269 271 273 280 292 295 302 308 311 314 306 303 300 319 323 333 336 339 342 326 301 297 300 328 308 289 238 189 178 164 142 129
268 267 267 228 233 239 243 248 254 261 266 270 271 276 281 282 285 288 290 290 290 292 284 292 313 324 329 337 337 343 341 288 264 291 325 306 285 252 220 211 209 177 153
266 280 250 235 229 231 234 238 246 255 262 261 265 270 273 279 283 282 281 279 275 277 283 293 299 323 330 336 345 343 343 329 221 249 277 300 297 279 237 216 214 237 234
273 266 253 241 235 228 232 238 243 250 255 259 264 269 274 280 283 282 282 281 280 273 271 280 292 303 316 325 339 343 340 341 309 265 240 236 239 241 238 247 236 225 241
267 265 253 248 251 243 236 238 242 245 250 251 253 262 269 274 277 277 278 278 278 273 270 269 275 283 295 304 314 323 330 334 326 292 280 251 227 217 218 218 226 233 238
254 258 262 257 253 244 240 242 242 238 247 255 257 257 263 267 270 270 271 272 273 272 269 269 269 271 278 291 298 304 311 321 323 300 294 264 255 239 225 218 225 221 225
264 259 256 257 258 253 247 245 248 244 244 247 250 254 257 261 264 264 265 264 266 267 266 265 266 266 267 276 282 287 297 302 303 297 290 276 266 261 252 244 231 236 236
265 265 266 264 258 255 254 251 241 245 244 247 248 249 254 259 261 261 260 261 262 264 264 263 263 264 266 266 267 272 274 281 292 293 286 271 265 258 252 253 252 244 249
264 261 260 258 257 258 257 255 254 253 251 251 251 247 250 255 255 258 259 261 260 262 262 263 261 260 261 262 260 261 260 259 262 274 280 271 260 263 254 249 249 244 245
262 263 262 261 258 258 257 257 256 257 258 257 258 253 249 248 253 254 256 259 260 260 260 261 260 258 255 255 256 260 255 251 253 254 264 269 263 257 255 251 248 244 237
265 264 264 265 264 260 259 261 261 260 260 259 258 258 260 252 244 246 249 252 256 257 257 258 259 257 254 253 254 254 254 252 251 250 253 259 257 257 256 249 251 254 251
272 271 271 270 269 269 269 264 260 260 260 261 261 261 260 258 257 251 248 247 248 252 256 255 255 253 249 247 249 251 252 255 255 253 247 250 254 249 254 255 250 251 255
276 277 275 273 273 272 270 269 268 269 266 263 262 262 261 260 259 257 256 252 249 250 252 253 251 251 247 245 242 246 250 255 257 256 253 248 251 250 247 253 252 251 251
277 276 276 276 273 272 271 270 269 268 267 266 265 265 264 263 262 260 257 254 252 251 250 248 254 252 249 245 243 242 244 250 254 253 252 252 252 253 247 249 250 250 253
283 282 280 279 278 277 276 274 272 271 269 267 266 262 259 261 261 261 260 258 253 250 249 248 249 255 251 248 244 244 244 244 249 252 249 249 251 250 251 248 247 247 250
289 289 287 284 283 282 280 278 276 273 270 268 265 262 260 256 254 257 258 259 257 253 250 248 245 242 253 261 244 247 248 246 241 245 247 243 243 246 246 249 251 249 250
295 294 293 289 285 282 279 277 275 274 272 268 265 264 261 259 257 255 254 255 255 254 252 250 249 248 245 245 254 254 246 247 245 242 244 246 242 242 241 243 246 249 251
305 303 298 292 289 286 284 282 281 278 275 272 270 266 261 260 258 257 255 254 253 252 253 252 250 248 248 247 249 252 254 248 246 248 244 243 245 244 244 242 243 243 247
311 310 308 304 301 299 296 292 289 284 281 277 272 267 263 259 257 256 256 254 252 251 250 250 250 249 249 248 249 249 253 251 253 257 240 242 241 245 249 246 243 243 245
308 313 315 309 305 303 301 296 292 290 286 281 275 269 265 261 258 256 256 256 256 254 251 249 248 248 247 248 247 246 248 252 253 256 258 253 253 243 243 241 241 239 245
306 317 311 315 311 311 313 310 305 301 296 288 282 276 271 267 268 262 258 254 251 253 254 254 250 248 247 246 246 248 247 247 250 253 257 255 253 257 257 245 243 242 259
304 314 313 311 313 318 322 321 323 319 309 299 292 281 272 268 267 267 265 265 265 261 254 250 249 248 247 248 247 247 249 247 246 250 254 257 259 255 255 258 261 258 258
Height
3180 3180 3181 3181 3182 3182 3183 3183 3183 3182 3182 3181 3181 3180 3180 3179 3178 3177 3176 3176 3174 3173 3172 3171 3171 3171 3169 3168 3168 3167 3167 3167 3166 3165 3165 3164 3164 3164 3164 3163 3163 3162 3162
3179 3180 3181 3182 3182 3182 3183 3183 3183 3183 3183 3182 3181 3181 3181 3180 3179 3178 3178 3177 3176 3175 3174 3173 3171 3171 3170 3170 3169 3168 3168 3167 3167 3167 3165 3165 3164 3164 3164 3165 3164 3163 3162
3180 3180 3181 3181 3182 3182 3181 3182 3182 3182 3183 3182 3182 3181 3181 3180 3180 3179 3179 3178 3177 3176 3175 3174 3173 3172 3171 3170 3170 3169 3169 3169 3168 3168 3167 3166 3165 3165 3164 3164 3164 3164 3163
3179 3179 3180 3179 3180 3181 3181 3182 3182 3182 3182 3182 3182 3181 3180 3181 3180 3179 3179 3178 3178 3177 3176 3175 3174 3174 3172 3171 3170 3170 3169 3169 3168 3168 3168 3167 3166 3165 3165 3164 3164 3164 3163
3178 3178 3178 3179 3179 3180 3181 3181 3181 3182 3182 3182 3182 3182 3181 3180 3180 3179 3179 3178 3178 3178 3177 3175 3175 3174 3173 3172 3170 3169 3170 3169 3168 3168 3168 3167 3167 3166 3166 3165 3164 3164 3163
3175 3176 3177 3177 3178 3179 3179 3180 3180 3180 3181 3181 3181 3181 3181 3180 3179 3179 3178 3178 3178 3177 3177 3175 3175 3174 3173 3172 3171 3170 3168 3168 3168 3168 3167 3167 3167 3167 3166 3166 3166 3164 3164
3173 3172 3173 3174 3175 3176 3177 3177 3178 3179 3179 3179 3179 3179 3179 3179 3178 3178 3178 3177 3176 3176 3175 3175 3175 3174 3173 3172 3171 3171 3169 3168 3168 3167 3167 3167 3167 3167 3166 3166 3166 3166 3166
3169 3169 3170 3171 3172 3172 3174 3175 3175 3177 3177 3177 3178 3177 3178 3177 3177 3177 3177 3176 3175 3175 3174 3173 3173 3173 3172 3171 3170 3170 3170 3169 3168 3167 3166 3165 3165 3166 3166 3166 3166 3166 3166
3167 3166 3166 3167 3168 3169 3171 3171 3172 3173 3173 3174 3174 3175 3175 3175 3175 3175 3176 3175 3175 3174 3173 3172 3171 3171 3171 3171 3170 3168 3168 3168 3168 3167 3166 3165 3164 3164 3164 3165 3165 3165 3165
3163 3163 3164 3164 3165 3165 3166 3168 3168 3169 3171 3171 3172 3172 3172 3172 3172 3172 3173 3172 3173 3172 3172 3171 3170 3169 3169 3169 3169 3168 3168 3167 3167 3166 3166 3165 3165 3164 3163 3163 3164 3164 3164
3162 3161 3161 3161 3162 3162 3161 3162 3163 3164 3165 3166 3167 3167 3168 3168 3168 3168 3168 3169 3169 3170 3169 3169 3168 3167 3167 3167 3167 3167 3166 3166 3165 3165 3164 3164 3163 3164 3164 3164 3164 3164 3164
3159 3159 3159 3159 3158 3158 3158 3158 3159 3159 3159 3161 3161 3162 3162 3163 3164 3164 3164 3165 3165 3165 3166 3166 3166 3165 3165 3164 3164 3164 3164 3164 3164 3163 3162 3162 3162 3162 3163 3163 3163 3163 3163
3153 3154 3154 3153 3153 3154 3154 3155 3154 3154 3154 3155 3155 3155 3156 3157 3158 3159 3160 3160 3161 3161 3162 3162 3162 3162 3162 3162 3161 3161 3161 3162 3161 3161 3161 3160 3160 3160 3160 3161 3161 3161 3161
3147 3148 3148 3147 3148 3148 3148 3149 3149 3150 3149 3149 3149 3149 3150 3151 3152 3153 3154 3155 3155 3156 3157 3157 3157 3158 3158 3158 3158 3158 3158 3158 3159 3159 3158 3158 3158 3157 3158 3158 3158 3159 3159
3143 3143 3143 3142 3143 3142 3142 3143 3143 3143 3142 3142 3142 3142 3142 3144 3145 3145 3146 3148 3149 3149 3150 3151 3152 3153 3153 3154 3154 3154 3154 3155 3155 3156 3156 3155 3155 3155 3155 3155 3156 3156 3157
3138 3138 3138 3138 3137 3137 3137 3136 3135 3135 3135 3134 3135 3136 3135 3136 3137 3138 3139 3140 3140 3142 3143 3144 3145 3145 3146 3147 3148 3149 3150 3150 3151 3152 3152 3152 3152 3152 3153 3153 3152 3153 3154
3132 3132 3131 3130 3129 3129 3129 3128 3128 3128 3128 3127 3127 3127 3127 3127 3128 3129 3130 3132 3133 3133 3134 3136 3137 3137 3138 3139 3141 3142 3144 3145 3146 3147 3148 3148 3149 3148 3149 3149 3149 3150 3150
3125 3125 3124 3122 3121 3120 3119 3118 3118 3118 3118 3118 3119 3119 3118 3118 3118 3118 3119 3121 3124 3125 3126 3128 3128 3129 3130 3131 3133 3135 3136 3137 3139 3141 3142 3144 3144 3145 3144 3145 3145 3146 3146
3117 3117 3116 3115 3113 3111 3110 3109 3108 3107 3107 3107 3107 3107 3107 3107 3107 3106 3107 3110 3113 3114 3116 3118 3118 3120 3122 3123 3125 3126 3127 3129 3131 3132 3135 3137 3139 3139 3140 3140 3140 3140 3142
3110 3108 3107 3106 3104 3102 3100 3098 3098 3096 3096 3095 3094 3093 3093 3093 3094 3093 3094 3095 3099 3102 3104 3106 3109 3111 3109 3113 3111 3115 3117 3119 3121 3123 3125 3129 3131 3132 3134 3135 3136 3136 3137
3103 3100 3097 3095 3093 3090 3087 3085 3084 3083 3083 3082 3081 3081 3080 3081 3081 3081 3081 3082 3085 3086 3089 3093 3096 3099 3101 3103 3100 3102 3104 3108 3110 3113 3117 3119 3122 3125 3126 3128 3129 3130 3131
3096 3093 3089 3085 3081 3079 3076 3073 3071 3070 3069 3067 3067 3067 3067 3065 3066 3066 3066 3068 3069 3071 3074 3077 3080 3084 3087 3093 3093 3095 3092 3097 3097 3103 3108 3111 3114 3117 3119 3121 3122 3124 3125
3091 3087 3083 3079 3075 3072 3067 3064 3061 3057 3055 3053 3053 3051 3052 3051 3050 3050 3049 3051 3053 3055 3058 3061 3064 3068 3072 3078 3082 3084 3083 3084 3090 3090 3093 3100 3104 3106 3112 3113 3114 3117 3118
3087 3084 3080 3075 3070 3066 3061 3056 3051 3047 3043 3041 3039 3037 3036 3036 3035 3035 3036 3037 3038 3040 3042 3045 3049 3051 3055 3058 3065 3069 3072 3075 3077 3080 3083 3089 3092 3094 3098 3101 3105 3108 3109
3083 3080 3075 3071 3066 3061 3055 3050 3044 3039 3033 3028 3025 3024 3024 3023 3024 3022 3020 3020 3021 3022 3027 3031 3034 3036 3039 3043 3047 3053 3060 3063 3065 3067 3070 3077 3082 3086 3086 3090 3094 3098 3100
3078 3074 3071 3065 3060 3055 3049 3044 3037 3031 3024 3018 3014 3011 3011 3010 3011 3012 3012 3012 3012 3012 3012 3013 3016 3021 3025 3029 3034 3038 3043 3048 3052 3056 3059 3064 3070 3077 3081 3082 3083 3089 3092